When you browse on this site, cookies collect data to enhance your experience and personalize the content and advertising you see.
Visit our Privacy Policy to learn more. By continuing to use the site, you agree to this use of cookies and data.
  • In Lithuania
  • List of Countries
  • For 7 days
  • Water Temperature
  • Satellite Maps
  • Weather Map
  • Weather Widgets
  • user-avatar
    Login

    Hourly Weather Kerns

    Today, 20 March, Wednesday

    Time Temperature Precipitation Wind Pressure Humidity
    00:00 +26°C° 0.5 mm 4 mps 757 mmHg 96%
    01:00 +26°C° 0.5 mm 4 mps 756 mmHg 96%
    02:00 +26°C° 0.2 mm 4 mps 756 mmHg 96%
    03:00 +26°C° 0.2 mm 4 mps 756 mmHg 96%
    04:00 +26°C° 0 mm 4 mps 755 mmHg 97%
    05:00 +26°C° 0.7 mm 3 mps 756 mmHg 97%
    06:00 +26°C° 0.7 mm 3 mps 756 mmHg 97%
    07:00 +26°C° 0.7 mm 3 mps 756 mmHg 97%
    08:00 +27°C° 1 mm 3 mps 756 mmHg 94%
    09:00 +28°C° 1 mm 3 mps 757 mmHg 91%
    10:00 +29°C° 1 mm 4 mps 757 mmHg 88%
    11:00 +29°C° 0.6 mm 4 mps 757 mmHg 87%
    12:00 +29°C° 0.6 mm 4 mps 757 mmHg 85%
    13:00 +29°C° 0.6 mm 4 mps 756 mmHg 83%
    14:00 +28°C° 0.4 mm 4 mps 756 mmHg 85%
    15:00 +27°C° 0.4 mm 4 mps 756 mmHg 86%
    16:00 +27°C° 0.4 mm 4 mps 755 mmHg 87%
    17:00 +26°C° 0.1 mm 3 mps 756 mmHg 87%
    18:00 +26°C° 0.1 mm 3 mps 756 mmHg 86%
    19:00 +25°C° 0.1 mm 3 mps 756 mmHg 86%
    20:00 +25°C° 0.6 mm 3 mps 756 mmHg 89%
    21:00 +25°C° 0.6 mm 3 mps 757 mmHg 91%
    22:00 +25°C° 0.6 mm 4 mps 757 mmHg 94%
    23:00 +25°C° 1 mm 4 mps 756 mmHg 95%

    Tomorrow, 21 March, Thursday

    Time Temperature Precipitation Wind Pressure Humidity
    00:00 +25°C° 1 mm 4 mps 756 mmHg 96%
    01:00 +25°C° 1 mm 4 mps 756 mmHg 97%
    02:00 +25°C° 1.1 mm 4 mps 755 mmHg 97%
    03:00 +25°C° 1.1 mm 4 mps 755 mmHg 97%
    04:00 +25°C° 1.1 mm 5 mps 755 mmHg 97%
    05:00 +25°C° 1.6 mm 5 mps 755 mmHg 97%
    06:00 +25°C° 1.6 mm 5 mps 755 mmHg 97%
    07:00 +25°C° 1.6 mm 5 mps 756 mmHg 97%
    08:00 +26°C° 0.7 mm 5 mps 756 mmHg 97%
    09:00 +26°C° 0.7 mm 4 mps 757 mmHg 96%
    10:00 +26°C° 0.7 mm 4 mps 757 mmHg 96%
    11:00 +26°C° 0.9 mm 4 mps 756 mmHg 96%
    12:00 +26°C° 0.9 mm 4 mps 756 mmHg 96%
    13:00 +27°C° 0.9 mm 4 mps 755 mmHg 97%
    14:00 +26°C° 1.3 mm 4 mps 755 mmHg 97%
    15:00 +26°C° 1.3 mm 4 mps 755 mmHg 97%
    16:00 +26°C° 1.3 mm 4 mps 754 mmHg 97%
    17:00 +26°C° 2.2 mm 4 mps 755 mmHg 97%
    18:00 +26°C° 2.2 mm 4 mps 755 mmHg 98%
    19:00 +26°C° 2.2 mm 4 mps 756 mmHg 98%
    20:00 +26°C° 1.1 mm 4 mps 756 mmHg 98%
    21:00 +26°C° 1.1 mm 4 mps 757 mmHg 98%
    22:00 +26°C° 1.1 mm 4 mps 757 mmHg 98%
    23:00 +26°C° 0.5 mm 4 mps 757 mmHg 98%

    Day after tomorrow, 22 March, Friday

    Time Temperature Precipitation Wind Pressure Humidity
    00:00 +26°C° 0.5 mm 4 mps 756 mmHg 98%
    01:00 +26°C° 0.5 mm 4 mps 756 mmHg 97%
    02:00 +26°C° 0.4 mm 4 mps 756 mmHg 97%
    03:00 +25°C° 0.4 mm 4 mps 755 mmHg 97%
    04:00 +25°C° 0.4 mm 4 mps 755 mmHg 97%
    05:00 +25°C° 3.6 mm 4 mps 755 mmHg 97%
    06:00 +25°C° 3.6 mm 5 mps 756 mmHg 97%
    07:00 +25°C° 3.6 mm 5 mps 756 mmHg 98%
    08:00 +26°C° 2.2 mm 5 mps 757 mmHg 98%
    09:00 +26°C° 2.2 mm 5 mps 757 mmHg 98%
    10:00 +26°C° 2.2 mm 5 mps 757 mmHg 97%
    11:00 +26°C° 1 mm 5 mps 757 mmHg 97%
    12:00 +27°C° 1 mm 5 mps 757 mmHg 97%
    13:00 +27°C° 1 mm 5 mps 756 mmHg 96%
    14:00 +27°C° 2 mm 4 mps 756 mmHg 97%
    15:00 +27°C° 2 mm 4 mps 756 mmHg 97%
    16:00 +27°C° 2 mm 4 mps 755 mmHg 98%
    17:00 +26°C° 2.7 mm 4 mps 756 mmHg 98%
    18:00 +26°C° 2.7 mm 4 mps 756 mmHg 98%
    19:00 +26°C° 2.7 mm 4 mps 756 mmHg 98%
    20:00 +26°C° 1.2 mm 3 mps 757 mmHg 98%
    21:00 +26°C° 1.2 mm 3 mps 757 mmHg 98%
    22:00 +26°C° 1.2 mm 2 mps 758 mmHg 98%
    23:00 +26°C° 2 mm 2 mps 757 mmHg 98%

    23 March, Saturday

    Time Temperature Precipitation Wind Pressure Humidity
    00:00 +26°C° 2 mm 3 mps 757 mmHg 98%
    01:00 +26°C° 2 mm 3 mps 757 mmHg 98%
    02:00 +26°C° 0.6 mm 2 mps 756 mmHg 98%
    03:00 +26°C° 0.6 mm 2 mps 756 mmHg 98%
    04:00 +26°C° 0.6 mm 2 mps 756 mmHg 98%
    05:00 +26°C° 0.2 mm 2 mps 756 mmHg 98%
    06:00 +26°C° 0.2 mm 2 mps 756 mmHg 98%
    07:00 +26°C° 0.2 mm 2 mps 757 mmHg 98%
    08:00 +27°C° 0.2 mm 2 mps 757 mmHg 95%
    09:00 +28°C° 0.2 mm 2 mps 758 mmHg 91%
    10:00 +29°C° 0.2 mm 3 mps 758 mmHg 88%
    11:00 +29°C° 1.1 mm 3 mps 758 mmHg 89%
    12:00 +30°C° 1.1 mm 2 mps 757 mmHg 90%
    13:00 +30°C° 1.1 mm 2 mps 757 mmHg 91%
    14:00 +29°C° 0.9 mm 2 mps 756 mmHg 91%
    15:00 +29°C° 0.9 mm 3 mps 756 mmHg 92%
    16:00 +29°C° 0.9 mm 3 mps 756 mmHg 92%
    17:00 +28°C° 0.3 mm 2 mps 756 mmHg 94%
    18:00 +28°C° 0.3 mm 2 mps 757 mmHg 95%
    19:00 +27°C° 0.3 mm 2 mps 757 mmHg 97%
    20:00 +27°C° 0.3 mm 2 mps 758 mmHg 97%
    21:00 +27°C° 0.3 mm 1 mps 758 mmHg 98%
    22:00 +27°C° 0.3 mm 1 mps 759 mmHg 98%
    23:00 +27°C° 0.1 mm 1 mps 758 mmHg 98%

    24 March, Sunday

    Time Temperature Precipitation Wind Pressure Humidity
    00:00 +27°C° 0.1 mm 1 mps 758 mmHg 98%
    01:00 +27°C° 0.1 mm 1 mps 758 mmHg 98%
    02:00 +26°C° 0 mm 2 mps 758 mmHg 98%
    03:00 +26°C° 0 mm 2 mps 757 mmHg 98%
    04:00 +26°C° 0 mm 2 mps 757 mmHg 98%
    05:00 +26°C° 0 mm 2 mps 758 mmHg 97%
    06:00 +26°C° 0 mm 2 mps 758 mmHg 97%
    07:00 +26°C° 0 mm 2 mps 758 mmHg 97%
    08:00 +28°C° 0.1 mm 2 mps 759 mmHg 90%
    09:00 +29°C° 0.1 mm 2 mps 759 mmHg 84%
    10:00 +31°C° 0.1 mm 3 mps 759 mmHg 78%
    11:00 +31°C° 0.9 mm 3 mps 759 mmHg 81%
    12:00 +31°C° 0.9 mm 3 mps 758 mmHg 84%
    13:00 +31°C° 0.9 mm 3 mps 757 mmHg 87%
    14:00 +30°C° 1 mm 3 mps 757 mmHg 89%
    15:00 +30°C° 1 mm 3 mps 757 mmHg 90%
    16:00 +30°C° 1 mm 3 mps 756 mmHg 91%
    17:00 +29°C° 0.4 mm 2 mps 757 mmHg 93%
    18:00 +28°C° 0.4 mm 2 mps 757 mmHg 95%
    19:00 +27°C° 0.4 mm 2 mps 758 mmHg 97%
    20:00 +27°C° 0.1 mm 2 mps 758 mmHg 97%
    21:00 +27°C° 0.1 mm 2 mps 759 mmHg 97%
    22:00 +26°C° 0.1 mm 2 mps 759 mmHg 98%
    23:00 +26°C° 0.1 mm 2 mps 759 mmHg 98%

    25 March, Monday

    Time Temperature Precipitation Wind Pressure Humidity
    00:00 +26°C° 0.1 mm 2 mps 759 mmHg 98%
    01:00 +26°C° 0.1 mm 2 mps 758 mmHg 98%
    02:00 +26°C° 0 mm 2 mps 758 mmHg 98%
    03:00 +26°C° 0 mm 2 mps 758 mmHg 98%
    04:00 +26°C° 0 mm 2 mps 758 mmHg 97%
    05:00 +26°C° 0 mm 2 mps 758 mmHg 97%
    06:00 +26°C° 0 mm 2 mps 759 mmHg 96%
    07:00 +26°C° 0 mm 2 mps 759 mmHg 96%
    08:00 +28°C° 0 mm 2 mps 759 mmHg 88%
    09:00 +30°C° 0 mm 3 mps 759 mmHg 79%
    10:00 +33°C° 0 mm 3 mps 759 mmHg 71%
    11:00 +33°C° 0.2 mm 3 mps 759 mmHg 70%
    12:00 +34°C° 0.2 mm 3 mps 758 mmHg 70%
    13:00 +34°C° 0.2 mm 3 mps 758 mmHg 70%
    14:00 +34°C° 0.2 mm 3 mps 757 mmHg 71%
    15:00 +33°C° 0.2 mm 3 mps 757 mmHg 73%
    16:00 +33°C° 0.2 mm 3 mps 757 mmHg 74%
    17:00 +30°C° 0 mm 2 mps 757 mmHg 81%
    18:00 +29°C° 0 mm 2 mps 758 mmHg 87%
    19:00 +28°C° 0 mm 2 mps 758 mmHg 93%
    20:00 +27°C° 0.1 mm 1 mps 759 mmHg 94%
    21:00 +27°C° 0.1 mm 1 mps 759 mmHg 96%
    22:00 +27°C° 0.1 mm 1 mps 760 mmHg 97%
    23:00 +27°C° 0.1 mm 1 mps 759 mmHg 97%
    Show more